GPS BIIR-08 1 27663U 03005A 26106.28144340 .00000008 00000+0 00000+0 0 9999 2 27663 54.8957 217.4277 0148304 52.9360 307.9236 2.00563846170067 GPS BIIR-11 1 28190U 04009A 26106.33108068 -.00000011 00000+0 00000+0 0 9998 2 28190 54.8821 278.1848 0113144 170.4442 20.9209 2.00556630161708 GPS BIIR-13 1 28474U 04045A 26104.25261366 -.00000044 00000+0 00000+0 0 9999 2 28474 55.1722 327.4718 0170218 314.5808 241.5192 2.00552885157146 GPS BIIR-14M 1 28874U 05038A 26106.02038875 -.00000009 00000+0 00000+0 0 9991 2 28874 54.9302 275.6846 0127882 295.7811 57.2010 2.00569945150587 METEOSAT-9 (MSG-2) 1 28912U 05049B 26105.95039436 .00000136 00000+0 00000+0 0 9991 2 28912 9.2216 54.7641 0001381 59.6406 117.4739 1.00268199 6378 GPS BIIR-16M 1 29601U 06052A 26105.59520735 .00000003 00000+0 00000+0 0 9992 2 29601 54.9466 216.4864 0086739 90.1189 270.8700 2.00554435142151 GPS BIIR-17M 1 32260U 07047A 26105.90046843 .00000030 00000+0 00000+0 0 9990 2 32260 54.0501 82.6316 0164448 86.3623 275.5100 2.00558414135560 GPS BIIR-18M 1 32384U 07062A 26105.96422194 -.00000009 00000+0 00000+0 0 9994 2 32384 55.0834 276.6522 0034257 161.8337 11.3638 2.00556138134265 GOES 14 1 35491U 09033A 26106.59376257 .00000006 00000+0 00000+0 0 9990 2 35491 1.5304 83.7570 0001638 303.5722 207.4913 1.00114302 5976 GOES 15 1 36411U 10008A 26106.51225572 .00000030 00000+0 00000+0 0 9999 2 36411 1.1134 84.0036 0003600 22.9450 345.3850 1.00271470 59025 GSAT0101 (GALILEO-PFM) 1 37846U 11060A 26105.08390327 -.00000063 00000+0 00000+0 0 9990 2 37846 57.0136 343.4742 0004025 23.5203 336.5535 1.70475678 90043 GSAT0102 (GALILEO-FM2) 1 37847U 11060B 26105.30183545 -.00000063 00000+0 00000+0 0 9998 2 37847 57.0144 343.4686 0004810 2.5629 176.8240 1.70475904 90052 LUCH 5A 1 37951U 11074B 26106.70097758 -.00000038 00000+0 00000+0 0 9996 2 37951 8.5980 74.6950 0002713 291.7365 257.6776 1.00271599 52432 METEOSAT-10 (MSG-3) 1 38552U 12035B 26106.13239269 .00000004 00000+0 00000+0 0 9996 2 38552 4.5248 61.2695 0002178 293.2120 257.6258 1.00274625 50236 SARSAT 13 (METOP-B) 1 38771U 12049A 26106.66743336 .00000065 00000+0 49491-4 0 9996 2 38771 98.6565 159.3770 0003046 143.8985 216.2399 14.21430701704523 GPS BIIF-3 1 38833U 12053A 26105.99541555 .00000088 00000+0 00000+0 0 9997 2 38833 53.5724 146.1473 0177696 65.0742 296.8532 2.00566466 98196 GSAT0103 (GALILEO-FM3) 1 38857U 12055A 26105.71087949 .00000074 00000+0 00000+0 0 9992 2 38857 55.7677 103.2581 0005976 294.2980 65.6632 1.70473383 83949 GPS BIIF-4 1 39166U 13023A 26106.35939084 -.00000010 00000+0 00000+0 0 9990 2 39166 54.5542 271.4905 0142012 50.5468 310.6715 2.00563787 94642 INSAT-3D 1 39216U 13038B 26106.72614130 -.00000331 00000+0 00000+0 0 9991 2 39216 1.7666 83.2835 0001314 256.9573 255.5486 1.00269635 46461 GPS BIIF-5 1 39533U 14008A 26106.35981306 .00000084 00000+0 00000+0 0 9996 2 39533 53.6426 151.8420 0083599 229.8075 129.5469 2.00555807 88441 LUCH 5V 1 39727U 14023A 26106.53142961 -.00000259 00000+0 00000+0 0 9999 2 39727 4.9803 70.3471 0002186 332.1599 88.1829 1.00275891 43742 GPS BIIF-6 1 39741U 14026A 26106.13733056 -.00000050 00000+0 00000+0 0 9994 2 39741 56.5265 333.9341 0039153 326.4167 33.3898 2.00565491 87293 GPS BIIF-7 1 40105U 14045A 26106.22736828 .00000048 00000+0 00000+0 0 9997 2 40105 55.3127 90.9317 0031486 119.4526 240.8646 2.00554256 84836 GSAT0201 (GALILEO 5) 1 40128U 14050A 26105.35558320 -.00000022 00000+0 00000+0 0 9993 2 40128 48.9453 276.0077 1664586 176.9376 184.2200 1.85519971 77157 GSAT0202 (GALILEO 6) 1 40129U 14050B 26105.61134235 -.00000023 00000+0 00000+0 0 9999 2 40129 48.9617 275.0821 1665661 177.6796 183.1966 1.85520667 79327 GPS BIIF-8 1 40294U 14068A 26106.10215896 -.00000064 00000+0 00000+0 0 9994 2 40294 56.9477 33.3471 0064833 68.6173 292.0696 2.00572284 83965 GLONASS-K 2 1 40315U 14075A 26104.95069944 .00000027 00000+0 00000+0 0 9996 2 40315 63.6146 192.5601 0021560 208.9811 150.9409 2.13101540 88504 GPS BIIF-9 1 40534U 15013A 26106.23589624 .00000016 00000+0 00000+0 0 9995 2 40534 53.1766 206.7397 0108834 39.9710 320.8419 2.00555067 80581 GSAT0203 (GALILEO 7) 1 40544U 15017A 26105.44853491 -.00000063 00000+0 00000+0 0 9991 2 40544 56.8057 343.3073 0002049 334.2220 25.8235 1.70475707 68135 GSAT0204 (GALILEO 8) 1 40545U 15017B 26105.11754339 -.00000064 00000+0 00000+0 0 9998 2 40545 56.8127 343.3348 0002571 293.5544 66.4738 1.70475523 31174 GPS BIIF-10 1 40730U 15033A 26104.89983563 -.00000008 00000+0 00000+0 0 9997 2 40730 54.0340 269.6939 0114975 29.7459 330.8760 2.00559412 78728 METEOSAT-11 (MSG-4) 1 40732U 15034A 26106.29976985 .00000074 00000+0 00000+0 0 9998 2 40732 3.0472 71.4319 0001733 293.6248 316.8603 1.00279676 6592 GSAT0205 (GALILEO 9) 1 40889U 15045A 26105.47814955 -.00000004 00000+0 00000+0 0 9994 2 40889 54.9657 223.4453 0004686 268.4414 91.4761 1.67410740 65912 GSAT0206 (GALILEO 10) 1 40890U 15045B 26106.27933981 -.00000002 00000+0 00000+0 0 9994 2 40890 54.9650 223.3127 0002428 42.5304 317.4641 1.70473886 65984 GPS BIIF-11 1 41019U 15062A 26105.95510267 -.00000064 00000+0 00000+0 0 9997 2 41019 56.9205 33.2092 0111233 231.5564 127.4414 2.00566953 76585 ELEKTRO-L 2 1 41105U 15074A 26106.48343352 -.00000106 00000+0 00000+0 0 9991 2 41105 6.5386 71.2682 0002237 257.8923 35.0344 1.00271448 37889 GSAT0209 (GALILEO 12) 1 41174U 15079A 26105.27421623 .00000075 00000+0 00000+0 0 9990 2 41174 55.7884 102.9858 0005613 326.9879 33.0027 1.70474182 63714 GSAT0208 (GALILEO 11) 1 41175U 15079B 26103.73472854 .00000074 00000+0 00000+0 0 9991 2 41175 55.7854 103.0250 0004952 327.5862 32.4145 1.70474115 64096 GPS BIIF-12 1 41328U 16007A 26106.04238089 .00000052 00000+0 00000+0 0 9996 2 41328 55.4855 91.9217 0096074 246.9423 112.0467 2.00554656 74596 GSAT0211 (GALILEO 14) 1 41549U 16030A 26105.03191433 -.00000004 00000+0 00000+0 0 9994 2 41549 55.1156 223.4308 0002633 6.8305 353.1444 1.70474042 61590 GSAT0210 (GALILEO 13) 1 41550U 16030B 26104.70260177 -.00000004 00000+0 00000+0 0 9991 2 41550 55.1161 223.4380 0002407 219.9994 139.9539 1.70474027 61585 INSAT-3DR 1 41752U 16054A 26106.60531029 -.00000070 00000+0 00000+0 0 9992 2 41752 0.0881 84.9672 0011870 196.2684 215.4445 1.00271127 35203 GSAT0207 (GALILEO 15) 1 41859U 16069A 26106.15404524 .00000071 00000+0 00000+0 0 9995 2 41859 55.4595 102.8008 0005869 314.7824 45.1896 1.70474042 58340 GSAT0212 (GALILEO 16) 1 41860U 16069B 26103.66122948 .00000073 00000+0 00000+0 0 9999 2 41860 55.4551 102.8649 0004506 338.0161 21.9957 1.70474348 58557 GSAT0213 (GALILEO 17) 1 41861U 16069C 26105.20175390 .00000074 00000+0 00000+0 0 9992 2 41861 55.4575 102.8301 0005877 300.3264 59.6413 1.70474644 58449 GSAT0214 (GALILEO 18) 1 41862U 16069D 26105.34785575 .00000073 00000+0 00000+0 0 9999 2 41862 55.4574 102.8190 0004905 304.7595 55.2194 1.70474391 58572 GOES 16 1 41866U 16071A 26106.56232919 -.00000084 00000+0 00000+0 0 9993 2 41866 0.1865 84.9634 0001640 244.7306 332.7601 1.00271537 34485 GSAT-17 1 42815U 17040B 26106.68566721 -.00000251 00000+0 00000+0 0 9995 2 42815 0.0937 78.8270 0003888 230.5322 235.8016 1.00271214 32173 GSAT0215 (GALILEO 19) 1 43055U 17079A 26104.66472663 -.00000004 00000+0 00000+0 0 9997 2 43055 55.0938 223.2536 0001119 266.7178 93.2406 1.70474705 51905 GSAT0216 (GALILEO 20) 1 43056U 17079B 26106.12908407 -.00000002 00000+0 00000+0 0 9999 2 43056 55.0915 223.2133 0002480 289.0166 70.9317 1.70474799 51941 GSAT0217 (GALILEO 21) 1 43057U 17079C 26105.76327507 -.00000003 00000+0 00000+0 0 9996 2 43057 55.0918 223.2213 0002060 313.9733 45.9835 1.70474676 51924 GSAT0218 (GALILEO 22) 1 43058U 17079D 26103.63700481 -.00000003 00000+0 00000+0 0 9997 2 43058 55.0927 223.2773 0002805 280.3217 79.6180 1.70474711 51913 GOES 17 1 43226U 18022A 26106.41502998 -.00000175 00000+0 00000+0 0 9995 2 43226 0.7784 86.5673 0000848 263.2684 274.6532 1.00271222 29806 GSAT0221 (GALILEO 25) 1 43564U 18060A 26104.71392756 -.00000063 00000+0 00000+0 0 9998 2 43564 57.1887 343.4959 0003957 319.4045 40.6211 1.70475574 48081 GSAT0222 (GALILEO 26) 1 43565U 18060B 26106.10658816 -.00000063 00000+0 00000+0 0 9996 2 43565 57.1923 343.4615 0004102 280.3624 79.6481 1.70475286 48153 GSAT0219 (GALILEO 23) 1 43566U 18060C 26103.98128036 -.00000064 00000+0 00000+0 0 9997 2 43566 57.1916 343.5209 0003821 331.8722 28.1607 1.70475619 48096 GSAT0220 (GALILEO 24) 1 43567U 18060D 26105.37549435 -.00000063 00000+0 00000+0 0 9992 2 43567 57.1893 343.4841 0003261 3.2930 356.7652 1.70475375 48102 BEIDOU-3 M13 1 43622U 18072A 26106.24894150 -.00000009 00000+0 00000+0 0 9991 2 43622 56.5725 64.7024 0008934 316.0162 43.8847 1.86231382 51504 BEIDOU-3 M14 1 43623U 18072B 26104.50353116 .00000001 00000+0 00000+0 0 9992 2 43623 56.5729 64.7539 0006821 337.5005 22.4488 1.86231497 51463 GPS BIII-1 1 43873U 18109A 26106.44903278 .00000055 00000+0 00000+0 0 9994 2 43873 55.6443 94.6209 0037973 198.9213 347.5137 2.00558731 53836 METEOR-M2 2 1 44387U 19038A 26106.70864590 .00000035 00000+0 35205-4 0 9997 2 44387 98.9120 93.0962 0001356 144.2799 215.8470 14.24348505352549 GPS BIII-2 1 44506U 19056A 26106.09678353 -.00000051 00000+0 00000+0 0 9991 2 44506 55.6649 333.6118 0059212 197.5699 356.3485 2.00568841 48826 BEIDOU-3 M24 1 44542U 19061A 26104.88178200 .00000035 00000+0 00000+0 0 9999 2 44542 54.3951 184.8632 0008091 10.7619 349.3107 1.86229272 44613 BEIDOU-3 M23 1 44543U 19061B 26106.14009623 .00000048 00000+0 00000+0 0 9997 2 44543 54.3937 184.7895 0004827 353.3832 42.3040 1.86227369 44648 BEIDOU-3 M22 1 44793U 19078A 26105.25776734 -.00000023 00000+0 00000+0 0 9991 2 44793 53.9936 302.0417 0007515 43.7348 316.3427 1.86227469 43477 BEIDOU-3 M21 1 44794U 19078B 26105.93481333 -.00000026 00000+0 00000+0 0 9998 2 44794 53.9663 301.9807 0005249 40.4725 319.5814 1.86227882 43497 ELEKTRO-L 3 1 44903U 19095A 26106.66944968 -.00000089 00000+0 00000+0 0 9997 2 44903 0.0989 70.7225 0001135 310.5823 140.4651 1.00271679 23091 GPS BIII-3 1 45854U 20041A 26106.14009601 -.00000066 00000+0 00000+0 0 9990 2 45854 56.6322 31.3521 0061891 204.9129 321.0607 2.00559745 42797 COSMOS 2547 1 46805U 20075A 26104.12481988 .00000016 00000+0 00000+0 0 9996 2 46805 64.5976 194.6119 0007939 234.9845 124.9755 2.13100514 42541 GPS BIII-4 1 46826U 20078A 26105.94814102 .00000008 00000+0 00000+0 0 9992 2 46826 53.9911 213.3025 0070592 205.4114 156.3893 2.00564913 40269 GSAT0223 (GALILEO 27) 1 49809U 21116A 26106.14273341 -.00000063 00000+0 00000+0 0 9999 2 49809 57.1797 343.3527 0001834 280.9810 280.7931 1.70475568 27124 GSAT0224 (GALILEO 28) 1 49810U 21116B 26105.33975384 -.00000063 00000+0 00000+0 0 9997 2 49810 57.1806 343.3736 0000728 353.1628 188.4061 1.70475628 27136 GOES 18 1 51850U 22021A 26106.62447513 .00000000 00000+0 00000+0 0 9991 2 51850 0.0170 75.0012 0000370 19.1020 198.4730 1.00272014 5977 COSMOS 2557 (706K) 1 52984U 22075A 26106.16666615 -.00000008 00000+0 00000+0 0 9993 2 52984 64.3345 316.6715 0010518 283.0862 76.8443 2.13102137 29393 METEOSAT-12 (MTG-I1) 1 54743U 22170C 26106.36917818 -.00000001 00000+0 00000+0 0 9993 2 54743 0.7118 20.4181 0001109 327.1094 349.6888 1.00267336 12350 METEOR-M2 3 1 57166U 23091A 26106.68912887 -.00000022 00000+0 94145-5 0 9996 2 57166 98.6138 162.9092 0003832 7.1970 352.9263 14.24041470145761 COSMOS 2569 (703K) 1 57517U 23114A 26106.31137576 .00000027 00000+0 00000+0 0 9991 2 57517 65.2687 74.7058 0012636 294.7308 65.1188 2.13103822 20949 METEOR-M2 4 1 59051U 24039A 26106.70438470 -.00000013 00000+0 13688-4 0 9990 2 59051 98.6964 66.7927 0007013 357.4347 2.6794 14.22422882110527 GSAT0225 (GALILEO 29) 1 59598U 24079A 26105.32098455 .00000073 00000+0 00000+0 0 9996 2 59598 55.0782 102.8354 0002840 274.7268 248.4558 1.70474525 12248 GSAT0227 (GALILEO 30) 1 59600U 24079C 26103.47880739 .00000071 00000+0 00000+0 0 9996 2 59600 55.0733 102.8851 0001006 8.3967 351.6365 1.70474531 12262 GSAT0232 (GALILEO 32) 1 61182U 24167A 26105.50003841 -.00000003 00000+0 00000+0 0 9995 2 61182 55.2052 223.0325 0004553 209.8208 166.1986 1.70474339 9815 GSAT0226 (GALILEO 31) 1 61183U 24167B 26105.25322130 -.00000004 00000+0 00000+0 0 9994 2 61183 55.2040 223.0466 0001727 178.6898 137.1959 1.70474296 9772 GSAT0233 (GALILEO 33) 1 67160U 25302A 26106.62872271 .00000067 00000+0 00000+0 0 9993 2 67160 54.2950 103.8833 0002351 240.8174 295.7159 1.70474524 2071 GSAT0234 (GALILEO 34) 1 67162U 25302C 26105.46169840 .00000072 00000+0 00000+0 0 9993 2 67162 54.2958 103.9153 0003971 291.4076 68.9989 1.70474574 2110